TimeMST,TemperatureF,Dew PointF,Humidity,Sea Level PressureIn,VisibilityMPH,Wind Direction,Wind SpeedMPH,Gust SpeedMPH,PrecipitationIn,Events,Conditions,WindDirDegrees,DateUTC
12:53 AM,48.0,28.0,46,29.72,10.0,SSW,17.3,-,N/A,,Clear,210,2012-11-30 07:53:00
1:53 AM,46.0,28.0,50,29.72,10.0,South,13.8,-,N/A,,Clear,190,2012-11-30 08:53:00
2:53 AM,46.9,28.9,50,29.70,10.0,South,11.5,-,N/A,,Clear,180,2012-11-30 09:53:00
3:53 AM,45.0,28.0,52,29.67,10.0,SSW,10.4,-,N/A,,Clear,210,2012-11-30 10:53:00
4:53 AM,46.9,28.9,50,29.66,10.0,SW,15.0,-,N/A,,Clear,220,2012-11-30 11:53:00
5:53 AM,51.1,28.9,43,29.63,10.0,SSW,17.3,25.3,N/A,,Clear,200,2012-11-30 12:53:00
6:53 AM,52.0,28.9,41,29.60,10.0,SSW,19.6,-,N/A,,Scattered Clouds,200,2012-11-30 13:53:00
7:53 AM,53.1,28.9,40,29.60,10.0,SSW,24.2,-,N/A,,Scattered Clouds,200,2012-11-30 14:53:00
8:53 AM,54.0,30.9,41,29.59,10.0,South,24.2,31.1,N/A,,Overcast,190,2012-11-30 15:53:00
9:53 AM,52.0,33.1,49,29.60,10.0,SSW,23.0,33.4,N/A,,Overcast,200,2012-11-30 16:53:00
10:53 AM,52.0,34.0,50,29.56,10.0,SSW,18.4,-,N/A,,Overcast,200,2012-11-30 17:53:00
11:53 AM,55.0,34.0,45,29.52,10.0,SSW,21.9,26.5,N/A,,Partly Cloudy,200,2012-11-30 18:53:00
12:53 PM,54.0,34.0,47,29.52,10.0,SW,6.9,-,N/A,,Partly Cloudy,230,2012-11-30 19:53:00
1:53 PM,54.0,33.1,45,29.54,10.0,WSW,9.2,-,N/A,,Mostly Cloudy,240,2012-11-30 20:53:00
2:53 PM,53.1,35.1,50,29.54,10.0,WSW,18.4,-,N/A,,Overcast,250,2012-11-30 21:53:00
3:53 PM,52.0,35.1,53,29.58,10.0,SW,18.4,-,N/A,,Mostly Cloudy,230,2012-11-30 22:53:00
4:53 PM,51.8,35.6,54,29.57,10.0,SW,16.1,-,N/A,,Clear,220,2012-11-30 23:53:00
5:53 PM,46.9,35.1,63,29.60,10.0,SW,11.5,-,N/A,,Clear,220,2012-12-01 00:53:00
6:53 PM,46.0,34.0,63,29.62,10.0,SW,13.8,-,N/A,,Clear,220,2012-12-01 01:53:00
7:53 PM,45.0,33.1,63,29.64,10.0,SSW,9.2,-,N/A,,Clear,200,2012-12-01 02:53:00
8:53 PM,44.6,33.8,66,29.64,10.0,SSW,13.8,-,N/A,,Clear,200,2012-12-01 03:53:00
9:53 PM,46.0,33.1,61,29.65,10.0,SW,17.3,21.9,N/A,,Mostly Cloudy,220,2012-12-01 04:53:00
10:53 PM,46.0,34.0,63,29.66,10.0,SW,18.4,-,N/A,,Clear,220,2012-12-01 05:53:00
11:53 PM,45.0,33.1,63,29.66,10.0,SW,10.4,-,N/A,,Partly Cloudy,230,2012-12-01 06:53:00